GLOBALSTAR M078 [+] (39076 NORAD) Tracking and Keplerian Element Data

This shows tracking and keplerian element data for the satellite.

Feedback or suggestion? Click here.




ElementValue
Catalog39076
NameGLOBALSTAR M078 [+]
Epoch Orbit26998
Epoch Day348.51151349
Epoch Year2018
RAAN352.6526
Inclination51.9889
Eccentricity0.0001912
Argument of Perigee333.7449
Mean Anonmoly26.3321
Mean Motion12.62055329
Decay Rate-5.1E-07
L11 39076U 13005E 18348.51151349 -.00000051 00000-0 29309-3 0 9990
L22 39076 51.9889 352.6526 0001912 333.7449 26.3321 12.62055329269988

Live tracking and technical data element details for GLOBALSTAR M078 [+] (NORAD 39076). GLOBALSTAR M078 [+] can be tracked NOW for your location showing map with azimuth and elevation plus other details from your city location.

Track the satellite on the map from your city or location and see movement details for azimuth, elevation, latitude, longitude, range, height, and movement on the map or in text.







IsCatalogInMostPopularTable: catalog: 39076, numindb: 120
Update: records affected: 1



GetName: 39076 GLOBALSTAR M078 [+]

Hit Count: updated at: Sat, 15 Dec 2018 13:22:40 GMT